Find Starlink 11466

NORAD ID: 62220 Int'l Des: 2024-231 Owner: SPXS Country: US Constellation: starlink operational
LEOCIRCULAR

Current View

Loading 3D Globe...

About Starlink 11466

Starlink 11466 (NORAD 62220) is a starlink constellation satellite (v2 mini d2c) launched Dec 5, 2024 by SPXS of US. It operates in LEO, CIRCULAR orbit with a mass of 960.00 kg.

About Starlink 11466

Description loading...

Upcoming Passes

Passes for default location (London). Set your location on the main map for personalized predictions.

Altitude History

Loading altitude history...

Two-Line Element Set

1 62220U 24231C 26171.41767823 .00259586 00000-0 20667-2 0 9997
2 62220 53.1566 315.0352 0001389 125.4042 234.7106 15.69878725 89545
Epoch: Jun 20, 2026 • Age: 33 hours

Current Status

Altitude 356.7 km
Velocity 7.70 km/s
Sub-Earth Point 10.30°N, 71.64°W
Launch Date Dec 5, 2024
Age 1.5 years
Type internet

Technical Details

Classification Payload
Mass 960.00 kg
Dry Mass 910.00 kg
Total Mass 960.00 kg
Length 0.30 m
Diameter 4.10 m
Span 29.00 m
Shape Box + pan
Manufacturer SPXS
Bus Type Starlink V2MD
Phase Status In Orbit
Owner/State SPXS/US

Most Searched